Flag for Falkland Islands Weather past 2 weeks in Stanley, Falkland Islands

Now
41 °F

Sprinkles. Partly cloudy.


Feels Like: 30 °F
Forecast: 39 / 43 °F
Wind: 28 mph from West

Location: Mount Pleasant Airport

Current Time: May 24, 2015 at 1:11:31 AM

Latest Report: May 23, 2015 at 11:50 PM


Visibility: N/A

Pressure: 28.94 "Hg

Humidity: 81%

Dew point: 36 °F

Location of StanleyLocation

Historic Weather in Stanley — Graph

°F

Stanley temperature yesterday

Maximum temperature yesterday: 41 °F (at 12:50 PM)
Minimum temperature yesterday: 34 °F (at 4:50 AM)
Average temperature yesterday: 38 °F

Past Weeks' High & Low Weather Summary

 TemperatureHumidityPressure
High54 °F (May 15, 12:50 PM)100% (May 11, 9:50 AM)30.39 "Hg (May 11, 9:50 AM)
Low32 °F (May 9, 5:50 AM)47% (May 18, 12:50 PM)28.74 "Hg (May 16, 7:50 PM)
Average44 °F82%29.50 "Hg
* Reported May 8 11:50 PM — May 23 11:50 PM, Stanley, Weather by CustomWeather, © 2015

Note: Actual official high and low records may vary slightly from our data, if they occured in-between our weather recording intervals... More about our weather records

Advertising

Stanley weather history for previous 24 hours

 ConditionsComfort  
Time TempWeatherWind HumidityBarometerVisibility
11:50 PM
Sat, May 23
41 °FSprinkles. Partly cloudy.28 mph81%28.94 "HgN/A
10:50 PM41 °FSprinkles. Partly cloudy.35 mph76%28.94 "HgN/A
9:50 PM41 °FPassing clouds.30 mph81%28.97 "HgN/A
8:50 PM41 °FPassing clouds.30 mph81%29.00 "HgN/A
7:50 PM41 °FPassing clouds.28 mph87%29.00 "HgN/A
6:50 PM39 °FClear.30 mph87%29.03 "Hg10 mi
5:50 PM37 °FPassing clouds.28 mph87%29.06 "HgN/A
4:50 PM39 °FPassing clouds.24 mph87%29.06 "HgN/A
3:50 PM39 °FScattered showers. Passing clouds.28 mph87%29.09 "HgN/A
2:50 PM39 °FScattered clouds.26 mph81%29.12 "HgN/A
1:50 PM41 °FPassing clouds.26 mph70%29.15 "HgN/A
12:50 PM41 °FScattered clouds.28 mph76%29.18 "HgN/A
11:50 AM39 °FPartly sunny.23 mph81%29.18 "HgN/A
10:50 AM37 °FScattered clouds.22 mph81%29.21 "HgN/A
9:50 AM34 °FPassing clouds.20 mph93%29.21 "HgN/A
8:50 AM34 °FScattered showers. Passing clouds.23 mph87%29.21 "HgN/A
7:50 AM34 °FPassing clouds.18 mph81%29.18 "HgN/A
6:50 AM34 °FPassing clouds.16 mph87%29.18 "HgN/A
5:50 AM34 °FPassing clouds.15 mph93%29.15 "HgN/A
4:50 AM34 °FPassing clouds.16 mph93%29.15 "HgN/A
3:50 AM37 °FPassing clouds.18 mph87%29.12 "HgN/A
2:50 AM37 °FPassing clouds.20 mph87%29.09 "HgN/A
1:50 AM37 °FSprinkles. Partly cloudy.20 mph87%29.06 "Hg5 mi
Weather by CustomWeather, © 2015

See weather overviewHow to use our weather pages